Time,TemperatureF,DewpointF,PressureIn,WindDirection,WindDirectionDegrees,WindSpeedMPH,WindSpeedGustMPH,Humidity,HourlyPrecipIn,Conditions,Clouds,dailyrainin,SoftwareType,DateUTC
2013-08-02 00:14:00,63.7,51.7,29.61,East,90,0.0,-999.0,65,-99.99,,,0.00,Acu-Link.com,2013-08-02 08:14:00,
2013-08-02 00:29:00,61.9,52.8,29.61,SW,225,4.7,-999.0,72,-99.99,,,0.00,Acu-Link.com,2013-08-02 08:29:00,
2013-08-02 00:44:00,61.3,52.6,29.62,NNE,22,1.1,-999.0,73,-99.99,,,0.00,Acu-Link.com,2013-08-02 08:44:00,
2013-08-02 00:59:00,60.6,51.9,29.61,NNE,22,3.2,-999.0,73,-99.99,,,0.00,Acu-Link.com,2013-08-02 08:59:00,
2013-08-02 01:14:00,60.4,51.0,29.62,East,90,3.7,-999.0,71,-99.99,,,0.00,Acu-Link.com,2013-08-02 09:14:00,
2013-08-02 01:30:00,60.8,50.2,29.62,East,90,3.2,-999.0,68,-99.99,,,0.00,Acu-Link.com,2013-08-02 09:30:00,
2013-08-02 01:45:00,60.6,50.0,29.62,East,90,1.7,-999.0,68,-99.99,,,0.00,Acu-Link.com,2013-08-02 09:45:00,
2013-08-02 02:00:00,59.9,50.1,29.63,WSW,247,2.7,-999.0,70,-99.99,,,0.00,Acu-Link.com,2013-08-02 10:00:00,
2013-08-02 02:15:00,58.8,50.2,29.63,SE,135,2.2,-999.0,73,-99.99,,,0.00,Acu-Link.com,2013-08-02 10:15:00,
2013-08-02 02:30:00,57.2,49.3,29.63,SE,135,1.7,-999.0,75,-99.99,,,0.00,Acu-Link.com,2013-08-02 10:30:00,
2013-08-02 02:46:00,56.1,49.3,29.63,SE,135,0.0,-999.0,78,-99.99,,,0.00,Acu-Link.com,2013-08-02 10:46:00,
2013-08-02 03:01:00,55.6,49.2,29.63,West,270,0.0,-999.0,79,-99.99,,,0.00,Acu-Link.com,2013-08-02 11:01:00,
2013-08-02 03:16:00,54.9,48.8,29.63,SE,135,0.0,-999.0,80,-99.99,,,0.00,Acu-Link.com,2013-08-02 11:16:00,
2013-08-02 03:32:00,54.1,48.4,29.63,West,270,0.0,-999.0,81,-99.99,,,0.00,Acu-Link.com,2013-08-02 11:32:00,
2013-08-02 03:47:00,53.6,48.6,29.63,West,270,0.0,-999.0,83,-99.99,,,0.00,Acu-Link.com,2013-08-02 11:47:00,
2013-08-02 04:02:00,53.2,47.5,29.64,East,90,1.7,-999.0,81,-99.99,,,0.00,Acu-Link.com,2013-08-02 12:02:00,
2013-08-02 04:17:00,52.9,47.6,29.64,West,270,0.0,-999.0,82,-99.99,,,0.00,Acu-Link.com,2013-08-02 12:17:00,
2013-08-02 04:33:00,52.2,47.5,29.65,ENE,67,2.2,-999.0,84,-99.99,,,0.00,Acu-Link.com,2013-08-02 12:33:00,
2013-08-02 04:49:00,51.4,48.3,29.65,NE,45,3.2,-999.0,89,-99.99,,,0.00,Acu-Link.com,2013-08-02 12:49:00,
2013-08-02 05:04:00,51.6,48.5,29.65,ESE,112,2.7,-999.0,89,-99.99,,,0.00,Acu-Link.com,2013-08-02 13:04:00,
2013-08-02 05:19:00,50.5,47.1,29.66,SE,135,0.0,-999.0,88,-99.99,,,0.00,Acu-Link.com,2013-08-02 13:19:00,
2013-08-02 05:34:00,51.1,47.7,29.66,ESE,112,0.0,-999.0,88,-99.99,,,0.00,Acu-Link.com,2013-08-02 13:34:00,
2013-08-02 05:50:00,52.2,48.1,29.66,WSW,247,0.0,-999.0,86,-99.99,,,0.00,Acu-Link.com,2013-08-02 13:50:00,
2013-08-02 06:05:00,53.8,49.4,29.66,West,270,0.0,-999.0,85,-99.99,,,0.00,Acu-Link.com,2013-08-02 14:05:00,
2013-08-02 06:20:00,54.5,49.8,29.67,NNW,337,0.0,-999.0,84,-99.99,,,0.00,Acu-Link.com,2013-08-02 14:20:00,
2013-08-02 06:35:00,56.1,50.3,29.66,NNW,337,1.7,-999.0,81,-99.99,,,0.00,Acu-Link.com,2013-08-02 14:35:00,
2013-08-02 06:51:00,57.7,51.6,29.66,NW,315,0.0,-999.0,80,-99.99,,,0.00,Acu-Link.com,2013-08-02 14:51:00,
2013-08-02 07:06:00,63.1,52.4,29.67,NE,45,0.0,-999.0,68,-99.99,,,0.00,Acu-Link.com,2013-08-02 15:06:00,
2013-08-02 07:21:00,65.7,53.2,29.67,SE,135,0.0,-999.0,64,-99.99,,,0.00,Acu-Link.com,2013-08-02 15:21:00,
2013-08-02 07:36:00,68.7,54.2,29.66,ENE,67,0.0,-999.0,60,-99.99,,,0.00,Acu-Link.com,2013-08-02 15:36:00,
2013-08-02 07:52:00,71.8,54.2,29.66,ESE,112,2.2,-999.0,54,-99.99,,,0.00,Acu-Link.com,2013-08-02 15:52:00,
2013-08-02 08:07:00,70.2,52.8,29.66,SSW,202,2.2,-999.0,54,-99.99,,,0.00,Acu-Link.com,2013-08-02 16:07:00,
2013-08-02 08:22:00,71.4,54.4,29.66,WSW,247,2.7,-999.0,55,-99.99,,,0.00,Acu-Link.com,2013-08-02 16:22:00,
2013-08-02 08:38:00,75.6,55.1,29.66,WSW,247,1.1,-999.0,49,-99.99,,,0.00,Acu-Link.com,2013-08-02 16:38:00,
2013-08-02 08:53:00,76.3,55.7,29.67,SW,225,0.0,-999.0,49,-99.99,,,0.00,Acu-Link.com,2013-08-02 16:53:00,
2013-08-02 09:08:00,70.2,53.8,29.67,SSW,202,2.2,-999.0,56,-99.99,,,0.00,Acu-Link.com,2013-08-02 17:08:00,
2013-08-02 09:23:00,70.7,54.2,29.64,SW,225,2.2,-999.0,56,-99.99,,,0.00,Acu-Link.com,2013-08-02 17:23:00,
2013-08-02 09:40:00,73.4,54.7,29.64,SSE,157,2.2,-999.0,52,-99.99,,,0.00,Acu-Link.com,2013-08-02 17:40:00,
2013-08-02 09:55:00,72.7,54.0,29.61,West,270,2.2,-999.0,52,-99.99,,,0.00,Acu-Link.com,2013-08-02 17:55:00,
2013-08-02 10:10:00,77.4,56.2,29.60,East,90,3.2,-999.0,48,-99.99,,,0.00,Acu-Link.com,2013-08-02 18:10:00,
2013-08-02 10:26:00,76.1,55.0,29.60,West,270,6.3,-999.0,48,-99.99,,,0.00,Acu-Link.com,2013-08-02 18:26:00,
2013-08-02 10:41:00,75.9,53.6,29.59,NW,315,3.7,-999.0,46,-99.99,,,0.00,Acu-Link.com,2013-08-02 18:41:00,
2013-08-02 10:56:00,74.1,52.6,29.62,West,270,3.2,-999.0,47,-99.99,,,0.00,Acu-Link.com,2013-08-02 18:56:00,
2013-08-02 11:11:00,76.5,52.3,29.64,WNW,292,4.2,-999.0,43,-99.99,,,0.00,Acu-Link.com,2013-08-02 19:11:00,
2013-08-02 11:27:00,75.7,51.6,29.63,NNW,337,4.2,-999.0,43,-99.99,,,0.00,Acu-Link.com,2013-08-02 19:27:00,
2013-08-02 11:42:00,77.2,51.7,29.62,NW,315,7.3,-999.0,41,-99.99,,,0.00,Acu-Link.com,2013-08-02 19:42:00,
2013-08-02 11:57:00,75.9,51.1,29.64,WNW,292,1.7,-999.0,42,-99.99,,,0.00,Acu-Link.com,2013-08-02 19:57:00,
2013-08-02 12:12:00,79.0,51.9,29.62,NW,315,8.9,-999.0,39,-99.99,,,0.00,Acu-Link.com,2013-08-02 20:12:00,
2013-08-02 12:28:00,78.3,51.3,29.62,WNW,292,5.3,-999.0,39,-99.99,,,0.00,Acu-Link.com,2013-08-02 20:28:00,
2013-08-02 12:43:00,80.4,51.7,29.61,WNW,292,8.3,-999.0,37,-99.99,,,0.00,Acu-Link.com,2013-08-02 20:43:00,
2013-08-02 12:58:00,80.2,52.3,29.63,NW,315,9.9,-999.0,38,-99.99,,,0.00,Acu-Link.com,2013-08-02 20:58:00,
2013-08-02 13:13:00,79.7,52.5,29.63,NNW,337,8.3,-999.0,39,-99.99,,,0.00,Acu-Link.com,2013-08-02 21:13:00,
2013-08-02 13:28:00,80.4,51.7,29.63,SSW,202,8.9,-999.0,37,-99.99,,,0.00,Acu-Link.com,2013-08-02 21:28:00,
2013-08-02 13:44:00,80.4,51.7,29.63,NE,45,3.2,-999.0,37,-99.99,,,0.00,Acu-Link.com,2013-08-02 21:44:00,
2013-08-02 13:59:00,81.1,51.6,29.62,NNW,337,6.8,-999.0,36,-99.99,,,0.00,Acu-Link.com,2013-08-02 21:59:00,
2013-08-02 14:14:00,81.1,50.8,29.62,WNW,292,5.3,-999.0,35,-99.99,,,0.00,Acu-Link.com,2013-08-02 22:14:00,
2013-08-02 14:30:00,82.4,51.2,29.62,West,270,9.4,-999.0,34,-99.99,,,0.00,Acu-Link.com,2013-08-02 22:30:00,
2013-08-02 14:45:00,81.7,49.8,29.61,West,270,8.3,-999.0,33,-99.99,,,0.00,Acu-Link.com,2013-08-02 22:45:00,
2013-08-02 15:00:00,81.9,49.1,29.61,NNW,337,6.3,-999.0,32,-99.99,,,0.00,Acu-Link.com,2013-08-02 23:00:00,
2013-08-02 15:15:00,82.8,46.3,29.60,West,270,11.4,-999.0,28,-99.99,,,0.00,Acu-Link.com,2013-08-02 23:15:00,
2013-08-02 15:30:00,81.3,47.8,29.61,WSW,247,5.8,-999.0,31,-99.99,,,0.00,Acu-Link.com,2013-08-02 23:30:00,
2013-08-02 15:46:00,81.7,47.2,29.61,West,270,8.3,-999.0,30,-99.99,,,0.00,Acu-Link.com,2013-08-02 23:46:00,
2013-08-02 16:01:00,81.3,46.0,29.59,WSW,247,7.8,-999.0,29,-99.99,,,0.00,Acu-Link.com,2013-08-03 00:01:00,
2013-08-02 16:31:00,82.8,46.3,29.60,NNW,337,10.4,-999.0,28,-99.99,,,0.00,Acu-Link.com,2013-08-03 00:31:00,
2013-08-02 16:46:00,82.4,46.9,29.60,NNW,337,8.9,-999.0,29,-99.99,,,0.00,Acu-Link.com,2013-08-03 00:46:00,
2013-08-02 17:02:00,82.6,45.2,29.58,NW,315,5.8,-999.0,27,-99.99,,,0.00,Acu-Link.com,2013-08-03 01:02:00,
2013-08-02 17:17:00,82.8,46.3,29.57,West,270,4.2,-999.0,28,-99.99,,,0.00,Acu-Link.com,2013-08-03 01:17:00,
2013-08-02 17:32:00,82.8,45.4,29.57,NNW,337,6.3,-999.0,27,-99.99,,,0.00,Acu-Link.com,2013-08-03 01:32:00,
2013-08-02 17:47:00,80.6,46.3,29.57,West,270,4.2,-999.0,30,-99.99,,,0.00,Acu-Link.com,2013-08-03 01:47:00,
2013-08-02 18:03:00,81.0,47.5,29.57,West,270,5.3,-999.0,31,-99.99,,,0.00,Acu-Link.com,2013-08-03 02:03:00,
2013-08-02 18:18:00,82.4,45.0,29.56,NNW,337,4.7,-999.0,27,-99.99,,,0.00,Acu-Link.com,2013-08-03 02:18:00,
2013-08-02 18:33:00,81.1,45.8,29.57,NW,315,3.2,-999.0,29,-99.99,,,0.00,Acu-Link.com,2013-08-03 02:33:00,
2013-08-02 18:48:00,81.1,46.7,29.57,NW,315,3.7,-999.0,30,-99.99,,,0.00,Acu-Link.com,2013-08-03 02:48:00,
2013-08-02 19:03:00,80.1,51.5,29.56,NW,315,2.7,-999.0,37,-99.99,,,0.00,Acu-Link.com,2013-08-03 03:03:00,
2013-08-02 19:19:00,81.1,49.2,29.56,NW,315,4.7,-999.0,33,-99.99,,,0.00,Acu-Link.com,2013-08-03 03:19:00,
2013-08-02 19:34:00,81.0,50.7,29.55,NW,315,3.2,-999.0,35,-99.99,,,0.00,Acu-Link.com,2013-08-03 03:34:00,
2013-08-02 19:49:00,80.1,51.5,29.55,NW,315,3.7,-999.0,37,-99.99,,,0.00,Acu-Link.com,2013-08-03 03:49:00,
2013-08-02 20:04:00,80.4,49.4,29.55,NNW,337,2.7,-999.0,34,-99.99,,,0.00,Acu-Link.com,2013-08-03 04:04:00,
2013-08-02 20:20:00,79.5,48.7,29.54,NNE,22,3.7,-999.0,34,-99.99,,,0.00,Acu-Link.com,2013-08-03 04:20:00,
2013-08-02 20:35:00,78.6,47.9,29.54,NE,45,2.7,-999.0,34,-99.99,,,0.00,Acu-Link.com,2013-08-03 04:35:00,
2013-08-02 20:50:00,77.5,47.7,29.54,NNE,22,3.2,-999.0,35,-99.99,,,0.00,Acu-Link.com,2013-08-03 04:50:00,
2013-08-02 21:05:00,77.2,48.2,29.54,NE,45,2.2,-999.0,36,-99.99,,,0.00,Acu-Link.com,2013-08-03 05:05:00,
2013-08-02 21:21:00,75.9,51.8,29.54,East,90,1.7,-999.0,43,-99.99,,,0.00,Acu-Link.com,2013-08-03 05:21:00,
2013-08-02 21:36:00,74.7,51.9,29.53,NE,45,1.1,-999.0,45,-99.99,,,0.00,Acu-Link.com,2013-08-03 05:36:00,
2013-08-02 21:51:00,73.6,50.9,29.53,NE,45,2.7,-999.0,45,-99.99,,,0.00,Acu-Link.com,2013-08-03 05:51:00,
2013-08-02 22:22:00,71.4,51.2,29.52,ENE,67,2.7,-999.0,49,-99.99,,,0.00,Acu-Link.com,2013-08-03 06:22:00,
2013-08-02 22:37:00,70.0,51.6,29.52,ENE,67,0.0,-999.0,52,-99.99,,,0.00,Acu-Link.com,2013-08-03 06:37:00,
2013-08-02 22:52:00,68.4,53.0,29.52,SE,135,1.7,-999.0,58,-99.99,,,0.00,Acu-Link.com,2013-08-03 06:52:00,
2013-08-02 23:07:00,66.6,51.8,29.52,South,180,0.0,-999.0,59,-99.99,,,0.00,Acu-Link.com,2013-08-03 07:07:00,
2013-08-02 23:23:00,65.3,51.5,29.51,NNW,337,0.0,-999.0,61,-99.99,,,0.00,Acu-Link.com,2013-08-03 07:23:00,
2013-08-02 23:39:00,64.4,52.4,29.51,NNE,22,0.0,-999.0,65,-99.99,,,0.00,Acu-Link.com,2013-08-03 07:39:00,
2013-08-02 23:54:00,63.0,52.7,29.51,ESE,112,0.0,-999.0,69,-99.99,,,0.00,Acu-Link.com,2013-08-03 07:54:00,